Time,TemperatureF,DewpointF,PressureIn,WindDirection,WindDirectionDegrees,WindSpeedMPH,WindSpeedGustMPH,Humidity,HourlyPrecipIn,Conditions,Clouds,dailyrainin,SolarRadiationWatts/m^2,SoftwareType,DateUTC
2013-06-18 00:00:00,39.0,37.0,-100.00,NW,315,0.0,-999.0,93,-99.99,,,-99.99,0.000000,,2013-06-18 04:00:00,
2013-06-18 00:43:00,39.0,37.0,-100.00,NW,315,0.0,-999.0,93,-99.99,,,-99.99,0.000000,,2013-06-18 04:43:00,
2013-06-18 00:54:00,39.0,37.0,-100.00,NW,315,0.0,-999.0,93,-99.99,,,-99.99,0.000000,,2013-06-18 04:54:00,
2013-06-18 01:00:00,38.0,36.0,-100.00,SW,225,0.0,-999.0,94,-99.99,,,-99.99,0.000000,,2013-06-18 05:00:00,
2013-06-18 01:43:00,38.0,36.0,-100.00,SW,225,0.0,-999.0,94,-99.99,,,-99.99,0.000000,,2013-06-18 05:43:00,
2013-06-18 01:53:00,38.0,36.0,-100.00,SW,225,0.0,-999.0,94,-99.99,,,-99.99,0.000000,,2013-06-18 05:53:00,
2013-06-18 02:00:00,37.0,36.0,-100.00,SSE,157,0.0,-999.0,95,-99.99,,,-99.99,0.000000,,2013-06-18 06:00:00,
2013-06-18 02:43:00,37.0,36.0,-100.00,SSE,157,0.0,-999.0,95,-99.99,,,-99.99,0.000000,,2013-06-18 06:43:00,
2013-06-18 02:53:00,37.0,36.0,-100.00,SSE,157,0.0,-999.0,95,-99.99,,,-99.99,0.000000,,2013-06-18 06:53:00,
2013-06-18 03:00:00,37.0,36.0,-100.00,SE,135,0.0,-999.0,95,-99.99,,,-99.99,0.000000,,2013-06-18 07:00:00,
2013-06-18 03:43:00,37.0,36.0,-100.00,SE,135,0.0,-999.0,95,-99.99,,,-99.99,0.000000,,2013-06-18 07:43:00,
2013-06-18 03:53:00,37.0,36.0,-100.00,SE,135,0.0,-999.0,95,-99.99,,,-99.99,0.000000,,2013-06-18 07:53:00,
2013-06-18 04:00:00,37.0,36.0,-100.00,SSE,157,0.0,-999.0,95,-99.99,,,-99.99,0.000000,,2013-06-18 08:00:00,
2013-06-18 04:43:00,37.0,36.0,-100.00,SSE,157,0.0,-999.0,95,-99.99,,,-99.99,0.000000,,2013-06-18 08:43:00,
2013-06-18 04:52:00,37.0,36.0,-100.00,SSE,157,0.0,-999.0,95,-99.99,,,-99.99,0.000000,,2013-06-18 08:52:00,
2013-06-18 05:00:00,37.0,36.0,-100.00,NNE,22,0.0,-999.0,95,-99.99,,,-99.99,0.000000,,2013-06-18 09:00:00,
2013-06-18 05:43:00,37.0,36.0,-100.00,NNE,22,0.0,-999.0,95,-99.99,,,-99.99,0.000000,,2013-06-18 09:43:00,
2013-06-18 05:53:00,37.0,36.0,-100.00,NNE,22,0.0,-999.0,95,-99.99,,,-99.99,0.000000,,2013-06-18 09:53:00,
2013-06-18 06:00:00,36.0,35.0,-100.00,SE,135,0.0,-999.0,95,-99.99,,,-99.99,1.160000,,2013-06-18 10:00:00,
2013-06-18 06:43:00,36.0,35.0,-100.00,SE,135,0.0,-999.0,95,-99.99,,,-99.99,1.160000,,2013-06-18 10:43:00,
2013-06-18 06:53:00,36.0,35.0,-100.00,SE,135,0.0,-999.0,95,-99.99,,,-99.99,1.160000,,2013-06-18 10:53:00,
2013-06-18 07:00:00,38.0,37.0,-100.00,East,90,0.0,-999.0,96,-99.99,,,-99.99,51.040001,,2013-06-18 11:00:00,
2013-06-18 07:43:00,38.0,37.0,-100.00,East,90,0.0,-999.0,96,-99.99,,,-99.99,51.040001,,2013-06-18 11:43:00,
2013-06-18 07:52:00,38.0,37.0,-100.00,East,90,0.0,-999.0,96,-99.99,,,-99.99,51.040001,,2013-06-18 11:52:00,
2013-06-18 08:00:00,46.0,44.0,-100.00,SSW,202,0.0,-999.0,91,-99.99,,,-99.99,211.119995,,2013-06-18 12:00:00,
2013-06-18 08:43:00,46.0,44.0,-100.00,SSW,202,0.0,-999.0,91,-99.99,,,-99.99,211.119995,,2013-06-18 12:43:00,
2013-06-18 08:52:00,46.0,44.0,-100.00,SSW,202,0.0,-999.0,91,-99.99,,,-99.99,211.119995,,2013-06-18 12:52:00,
2013-06-18 09:00:00,52.0,44.0,-100.00,SW,225,0.0,-999.0,71,-99.99,,,-99.99,374.679993,,2013-06-18 13:00:00,
2013-06-18 09:43:00,52.0,44.0,-100.00,SW,225,0.0,-999.0,71,-99.99,,,-99.99,374.679993,,2013-06-18 13:43:00,
2013-06-18 09:53:00,52.0,44.0,-100.00,SW,225,0.0,-999.0,71,-99.99,,,-99.99,374.679993,,2013-06-18 13:53:00,
2013-06-18 10:00:00,58.0,45.0,-100.00,SW,225,0.0,-999.0,62,-99.99,,,-99.99,533.599976,,2013-06-18 14:00:00,
2013-06-18 10:43:00,58.0,45.0,-100.00,SW,225,0.0,-999.0,62,-99.99,,,-99.99,533.599976,,2013-06-18 14:43:00,
2013-06-18 10:53:00,58.0,45.0,-100.00,SW,225,0.0,-999.0,62,-99.99,,,-99.99,533.599976,,2013-06-18 14:53:00,
2013-06-18 11:00:00,61.0,44.0,-100.00,SE,135,1.0,-999.0,52,-99.99,,,-99.99,683.239990,,2013-06-18 15:00:00,
2013-06-18 11:43:00,61.0,44.0,-100.00,SE,135,1.0,-999.0,52,-99.99,,,-99.99,683.239990,,2013-06-18 15:43:00,
2013-06-18 11:53:00,61.0,44.0,-100.00,SE,135,1.0,-999.0,52,-99.99,,,-99.99,683.239990,,2013-06-18 15:53:00,
2013-06-18 12:00:00,63.0,43.0,-100.00,ESE,112,1.0,-999.0,48,-99.99,,,-99.99,801.559998,,2013-06-18 16:00:00,
2013-06-18 12:43:00,63.0,43.0,-100.00,ESE,112,1.0,-999.0,48,-99.99,,,-99.99,801.559998,,2013-06-18 16:43:00,
2013-06-18 12:53:00,63.0,43.0,-100.00,ESE,112,1.0,-999.0,48,-99.99,,,-99.99,801.559998,,2013-06-18 16:53:00,
2013-06-18 13:00:00,63.0,42.0,-100.00,East,90,2.0,-999.0,46,-99.99,,,-99.99,882.760010,,2013-06-18 17:00:00,
2013-06-18 13:43:00,63.0,42.0,-100.00,East,90,2.0,-999.0,46,-99.99,,,-99.99,882.760010,,2013-06-18 17:43:00,
2013-06-18 13:53:00,63.0,42.0,-100.00,East,90,2.0,-999.0,46,-99.99,,,-99.99,882.760010,,2013-06-18 17:53:00,
2013-06-18 14:00:00,65.0,40.0,-100.00,ENE,67,2.0,-999.0,39,-99.99,,,-99.99,917.559998,,2013-06-18 18:00:00,
2013-06-18 14:43:00,65.0,40.0,-100.00,ENE,67,2.0,-999.0,39,-99.99,,,-99.99,917.559998,,2013-06-18 18:43:00,
2013-06-18 14:53:00,65.0,40.0,-100.00,ENE,67,2.0,-999.0,39,-99.99,,,-99.99,917.559998,,2013-06-18 18:53:00,
2013-06-18 15:00:00,67.0,38.0,-100.00,ESE,112,2.0,-999.0,34,-99.99,,,-99.99,908.280029,,2013-06-18 19:00:00,
2013-06-18 15:43:00,67.0,38.0,-100.00,ESE,112,2.0,-999.0,34,-99.99,,,-99.99,908.280029,,2013-06-18 19:43:00,
2013-06-18 15:53:00,67.0,38.0,-100.00,ESE,112,2.0,-999.0,34,-99.99,,,-99.99,908.280029,,2013-06-18 19:53:00,
2013-06-18 16:00:00,69.0,37.0,-100.00,SE,135,2.0,-999.0,31,-99.99,,,-99.99,849.119995,,2013-06-18 20:00:00,
2013-06-18 16:43:00,69.0,37.0,-100.00,SE,135,2.0,-999.0,31,-99.99,,,-99.99,849.119995,,2013-06-18 20:43:00,
2013-06-18 16:53:00,69.0,37.0,-100.00,SE,135,2.0,-999.0,31,-99.99,,,-99.99,849.119995,,2013-06-18 20:53:00,
2013-06-18 17:00:00,68.0,36.0,-100.00,ESE,112,2.0,-999.0,30,-99.99,,,-99.99,725.000000,,2013-06-18 21:00:00,
2013-06-18 17:43:00,68.0,36.0,-100.00,ESE,112,2.0,-999.0,30,-99.99,,,-99.99,725.000000,,2013-06-18 21:43:00,
2013-06-18 17:52:00,68.0,36.0,-100.00,ESE,112,2.0,-999.0,30,-99.99,,,-99.99,725.000000,,2013-06-18 21:52:00,
2013-06-18 18:00:00,67.0,36.0,-100.00,East,90,1.0,-999.0,31,-99.99,,,-99.99,544.039978,,2013-06-18 22:00:00,
2013-06-18 18:43:00,67.0,36.0,-100.00,East,90,1.0,-999.0,31,-99.99,,,-99.99,544.039978,,2013-06-18 22:43:00,
2013-06-18 18:53:00,67.0,36.0,-100.00,East,90,1.0,-999.0,31,-99.99,,,-99.99,544.039978,,2013-06-18 22:53:00,
2013-06-18 19:00:00,66.0,36.0,-100.00,ENE,67,1.0,-999.0,32,-99.99,,,-99.99,314.359985,,2013-06-18 23:00:00,
2013-06-18 19:48:00,66.0,36.0,-100.00,ENE,67,1.0,-999.0,32,-99.99,,,-99.99,314.359985,,2013-06-18 23:48:00,
2013-06-18 20:00:00,65.0,35.0,-100.00,East,90,0.0,-999.0,32,-99.99,,,-99.99,284.200012,,2013-06-19 00:00:00,
2013-06-18 20:33:00,65.0,35.0,-100.00,East,90,0.0,-999.0,32,-99.99,,,-99.99,284.200012,,2013-06-19 00:33:00,
2013-06-18 20:43:00,65.0,35.0,-100.00,East,90,0.0,-999.0,32,-99.99,,,-99.99,284.200012,,2013-06-19 00:43:00,
2013-06-18 20:53:00,65.0,35.0,-100.00,East,90,0.0,-999.0,32,-99.99,,,-99.99,284.200012,,2013-06-19 00:53:00,
2013-06-18 21:00:00,62.0,36.0,-100.00,East,90,0.0,-999.0,37,-99.99,,,-99.99,126.440002,,2013-06-19 01:00:00,
2013-06-18 21:43:00,62.0,36.0,-100.00,East,90,0.0,-999.0,37,-99.99,,,-99.99,126.440002,,2013-06-19 01:43:00,
2013-06-18 21:53:00,62.0,36.0,-100.00,East,90,0.0,-999.0,37,-99.99,,,-99.99,126.440002,,2013-06-19 01:53:00,
2013-06-18 22:00:00,54.0,40.0,-100.00,West,270,0.0,-999.0,59,-99.99,,,-99.99,10.440000,,2013-06-19 02:00:00,
2013-06-18 22:43:00,54.0,40.0,-100.00,West,270,0.0,-999.0,59,-99.99,,,-99.99,10.440000,,2013-06-19 02:43:00,
2013-06-18 22:52:00,54.0,40.0,-100.00,West,270,0.0,-999.0,59,-99.99,,,-99.99,10.440000,,2013-06-19 02:52:00,
2013-06-18 23:00:00,48.0,41.0,-100.00,WSW,247,0.0,-999.0,76,-99.99,,,-99.99,0.000000,,2013-06-19 03:00:00,
2013-06-18 23:43:00,48.0,41.0,-100.00,WSW,247,0.0,-999.0,76,-99.99,,,-99.99,0.000000,,2013-06-19 03:43:00,
2013-06-18 23:52:00,48.0,41.0,-100.00,WSW,247,0.0,-999.0,76,-99.99,,,-99.99,0.000000,,2013-06-19 03:52:00,